Home   Weather   Toowoomba   Past weeks

Flag for Australia Past Weather in Toowoomba, Queensland, Australia — Yesterday and Last 2 Weeks

Now
48 °F

Cool.


Feels Like: 47 °F
Forecast: 49 / 71 °F
Wind: 5 mph from Northeast

Location: Oakey Aerodrome

Current Time: May 1, 2017 at 6:49:11 am

Latest Report: May 1, 2017 at 6:00 am


Visibility: N/A

Pressure: 30.11 "Hg (28.01 "Hg at 597m altitude)

Humidity: 94%

Dew Point: 47 °F

Location of ToowoombaLocation

Past Weather in Toowoomba — Graph

°F

Toowoomba Temperature Yesterday

Maximum temperature yesterday: 73 °F (at 3:00 pm)
Minimum temperature yesterday: 44 °F (at 6:00 am)
Average temperature yesterday: 58 °F

High & Low Weather Summary for the Past Weeks

 TemperatureHumidityPressure
High79 °F (Apr 25, 3:00 pm)99% (Apr 29, 7:00 am)30.30 "Hg (Apr 29, 7:00 am)
Low39 °F (Apr 28, 6:00 am)32% (Apr 25, 3:00 pm)29.80 "Hg (Apr 26, 3:00 pm)
Average62 °F73%30.11 "Hg
* Reported Apr 16 4:00 am — May 1 4:00 am, Toowoomba, Weather by CustomWeather, © 2017

Note: Actual official high and low records may vary slightly from our data, if they occured in-between our weather recording intervals... More about our weather records

Advertising

Toowoomba Weather History for the Previous 24 Hours

Scroll right to see more
 ConditionsComfort  
Time TempWeatherWind HumidityBarometerVisibility
4:00 am
Mon, May 1
50 °FCool.5 mph94%30.09 "HgN/A
3:00 am52 °FCool.5 mph96%30.09 "HgN/A
1:00 am53 °FCool.3 mph89%30.10 "HgN/A
12:00 am56 °FCool.7 mph91%30.11 "HgN/A
10:00 pm
Sun, Apr 30
59 °FCool.12 mph82%30.11 "HgN/A
9:00 pm58 °FCool.10 mph78%30.12 "HgN/A
7:00 pm58 °FCool.7 mph75%30.10 "HgN/A
6:00 pm63 °FMild.8 mph63%30.08 "HgN/A
4:00 pm72 °FMild.12 mph46%30.05 "HgN/A
3:00 pm73 °FScattered clouds.8 mph45%30.04 "HgN/A
1:00 pm72 °FMild.9 mph45%30.06 "HgN/A
12:00 pm72 °FMild.9 mph42%30.09 "HgN/A
10:00 am69 °FMild.9 mph52%30.14 "HgN/A
9:00 am63 °FMild.1 mph72%30.14 "HgN/A
7:00 am46 °FCool.3 mph97%30.11 "HgN/A
6:00 am44 °FQuite cool.5 mph96%30.09 "HgN/A
Weather by CustomWeather, © 2017

See weather overviewHow to use our weather pages